When you browse on this site, cookies collect data to enhance your experience and personalize the content and advertising you see.
Visit our Privacy Policy to learn more. By continuing to use the site, you agree to this use of cookies and data.
  • In Hungary
  • List of Countries
  • For 7 days
  • Water Temperature
  • Satellite Maps
  • Weather Map
  • News
  • Weather Widgets
  • user-avatar
    Login

    Hourly Weather Baesweiler

    Today, 16 February, Saturday

    Time Temperature Precipitation Wind Pressure Humidity
    00:00 +8°C° 0 mm 2 mps 758 mmHg 62%
    01:00 +7°C° 0 mm 2 mps 758 mmHg 63%
    02:00 +7°C° 0 mm 2 mps 758 mmHg 64%
    03:00 +6°C° 0 mm 2 mps 758 mmHg 65%
    04:00 +6°C° 0 mm 2 mps 758 mmHg 65%
    05:00 +6°C° 0 mm 2 mps 758 mmHg 65%
    06:00 +6°C° 0 mm 2 mps 758 mmHg 65%
    07:00 +7°C° 0 mm 2 mps 758 mmHg 63%
    08:00 +8°C° 0 mm 2 mps 758 mmHg 61%
    09:00 +9°C° 0 mm 2 mps 758 mmHg 59%
    10:00 +12°C° 0 mm 2 mps 758 mmHg 56%
    11:00 +13°C° 0 mm 2 mps 758 mmHg 53%
    12:00 +14°C° 0 mm 3 mps 758 mmHg 49%
    13:00 +15°C° 0 mm 2 mps 757 mmHg 51%
    14:00 +15°C° 0 mm 2 mps 757 mmHg 54%
    15:00 +15°C° 0 mm 2 mps 757 mmHg 56%
    16:00 +13°C° 0 mm 2 mps 757 mmHg 62%
    17:00 +12°C° 0 mm 2 mps 757 mmHg 68%
    18:00 +9°C° 0 mm 2 mps 757 mmHg 74%
    19:00 +8°C° 0 mm 2 mps 757 mmHg 76%
    20:00 +8°C° 0 mm 2 mps 757 mmHg 77%
    21:00 +7°C° 0 mm 2 mps 757 mmHg 78%
    22:00 +7°C° 0 mm 2 mps 757 mmHg 77%
    23:00 +6°C° 0 mm 2 mps 757 mmHg 77%

    Tomorrow, 17 February, Sunday

    Time Temperature Precipitation Wind Pressure Humidity
    00:00 +6°C° 0 mm 2 mps 757 mmHg 77%
    01:00 +6°C° 0 mm 2 mps 756 mmHg 77%
    02:00 +6°C° 0 mm 2 mps 756 mmHg 77%
    03:00 +5°C° 0 mm 2 mps 756 mmHg 78%
    04:00 +5°C° 0 mm 2 mps 755 mmHg 77%
    05:00 +5°C° 0 mm 2 mps 755 mmHg 77%
    06:00 +5°C° 0 mm 2 mps 755 mmHg 77%
    07:00 +6°C° 0 mm 2 mps 755 mmHg 72%
    08:00 +7°C° 0 mm 2 mps 755 mmHg 66%
    09:00 +9°C° 0 mm 3 mps 755 mmHg 61%
    10:00 +11°C° 0 mm 3 mps 755 mmHg 56%
    11:00 +12°C° 0 mm 3 mps 754 mmHg 51%
    12:00 +14°C° 0 mm 3 mps 754 mmHg 46%
    13:00 +14°C° 0 mm 3 mps 754 mmHg 48%
    14:00 +14°C° 0 mm 3 mps 753 mmHg 49%
    15:00 +14°C° 0 mm 3 mps 753 mmHg 51%
    16:00 +12°C° 0 mm 3 mps 753 mmHg 55%
    17:00 +11°C° 0 mm 3 mps 753 mmHg 59%
    18:00 +9°C° 0 mm 3 mps 753 mmHg 63%
    19:00 +8°C° 0 mm 3 mps 753 mmHg 64%
    20:00 +8°C° 0 mm 3 mps 753 mmHg 66%
    21:00 +8°C° 0 mm 3 mps 753 mmHg 67%
    22:00 +7°C° 0 mm 3 mps 753 mmHg 68%
    23:00 +7°C° 0 mm 3 mps 753 mmHg 70%

    Day after tomorrow, 18 February, Monday

    Time Temperature Precipitation Wind Pressure Humidity
    00:00 +7°C° 0 mm 2 mps 753 mmHg 71%
    01:00 +6°C° 0 mm 2 mps 753 mmHg 72%
    02:00 +6°C° 0 mm 2 mps 753 mmHg 72%
    03:00 +6°C° 0 mm 2 mps 753 mmHg 73%
    04:00 +6°C° 0 mm 2 mps 753 mmHg 73%
    05:00 +5°C° 0 mm 2 mps 753 mmHg 72%
    06:00 +5°C° 0 mm 2 mps 752 mmHg 72%
    07:00 +6°C° 0 mm 2 mps 752 mmHg 68%
    08:00 +8°C° 0 mm 3 mps 752 mmHg 65%
    09:00 +9°C° 0 mm 3 mps 752 mmHg 61%
    10:00 +10°C° 0 mm 3 mps 752 mmHg 58%
    11:00 +12°C° 0 mm 3 mps 752 mmHg 56%
    12:00 +13°C° 0 mm 3 mps 752 mmHg 53%
    13:00 +13°C° 0 mm 4 mps 751 mmHg 55%
    14:00 +12°C° 0 mm 4 mps 751 mmHg 56%
    15:00 +12°C° 0 mm 4 mps 750 mmHg 58%
    16:00 +11°C° 0 mm 4 mps 750 mmHg 64%
    17:00 +10°C° 0 mm 4 mps 750 mmHg 70%
    18:00 +7°C° 0 mm 4 mps 750 mmHg 75%
    19:00 +7°C° 0 mm 4 mps 750 mmHg 75%
    20:00 +7°C° 0 mm 4 mps 750 mmHg 74%
    21:00 +7°C° 0 mm 4 mps 750 mmHg 74%
    22:00 +7°C° 0 mm 4 mps 750 mmHg 76%
    23:00 +7°C° 0 mm 4 mps 750 mmHg 78%

    19 February, Tuesday

    Time Temperature Precipitation Wind Pressure Humidity
    00:00 +6°C° 0 mm 4 mps 750 mmHg 80%
    01:00 +6°C° 0.2 mm 4 mps 750 mmHg 83%
    02:00 +7°C° 0.2 mm 3 mps 750 mmHg 86%
    03:00 +7°C° 0.2 mm 3 mps 750 mmHg 88%
    04:00 +5°C° 0.1 mm 3 mps 750 mmHg 87%
    05:00 +5°C° 0.1 mm 4 mps 751 mmHg 86%
    06:00 +5°C° 0.1 mm 4 mps 751 mmHg 85%
    07:00 +5°C° 0 mm 4 mps 751 mmHg 85%
    08:00 +5°C° 0 mm 5 mps 752 mmHg 85%
    09:00 +6°C° 0 mm 5 mps 752 mmHg 84%
    10:00 +6°C° 0 mm 5 mps 752 mmHg 79%
    11:00 +7°C° 0 mm 6 mps 752 mmHg 75%
    12:00 +7°C° 0 mm 6 mps 753 mmHg 70%
    13:00 +7°C° 0 mm 6 mps 752 mmHg 67%
    14:00 +8°C° 0 mm 5 mps 752 mmHg 64%
    15:00 +8°C° 0 mm 5 mps 752 mmHg 62%
    16:00 +7°C° 0 mm 4 mps 752 mmHg 66%
    17:00 +6°C° 0 mm 4 mps 753 mmHg 70%
    18:00 +7°C° 0 mm 3 mps 753 mmHg 74%
    19:00 +5°C° 0 mm 3 mps 753 mmHg 75%
    20:00 +5°C° 0 mm 3 mps 753 mmHg 76%
    21:00 +5°C° 0 mm 3 mps 753 mmHg 76%
    22:00 +5°C° 0 mm 3 mps 753 mmHg 77%
    23:00 +5°C° 0 mm 3 mps 753 mmHg 78%

    20 February, Wednesday

    Time Temperature Precipitation Wind Pressure Humidity
    00:00 +4°C° 0 mm 3 mps 753 mmHg 78%
    01:00 +4°C° 0 mm 3 mps 753 mmHg 80%
    02:00 +4°C° 0 mm 3 mps 753 mmHg 83%
    03:00 +4°C° 0 mm 4 mps 753 mmHg 85%
    04:00 +3°C° 0 mm 4 mps 753 mmHg 85%
    05:00 +3°C° 0 mm 4 mps 753 mmHg 85%
    06:00 +3°C° 0 mm 4 mps 753 mmHg 86%
    07:00 +5°C° 0 mm 5 mps 753 mmHg 82%
    08:00 +6°C° 0 mm 5 mps 753 mmHg 78%
    09:00 +7°C° 0 mm 6 mps 753 mmHg 74%
    10:00 +8°C° 0 mm 6 mps 753 mmHg 70%
    11:00 +9°C° 0 mm 6 mps 753 mmHg 66%
    12:00 +10°C° 0 mm 6 mps 753 mmHg 62%
    13:00 +10°C° 0 mm 6 mps 753 mmHg 62%
    14:00 +10°C° 0 mm 5 mps 753 mmHg 61%
    15:00 +10°C° 0 mm 5 mps 753 mmHg 61%
    16:00 +10°C° 0 mm 4 mps 753 mmHg 64%
    17:00 +8°C° 0 mm 4 mps 754 mmHg 68%
    18:00 +8°C° 0 mm 4 mps 754 mmHg 71%
    19:00 +7°C° 0 mm 4 mps 754 mmHg 73%
    20:00 +7°C° 0 mm 4 mps 754 mmHg 75%
    21:00 +7°C° 0 mm 4 mps 754 mmHg 77%
    22:00 +6°C° 0 mm 4 mps 754 mmHg 79%
    23:00 +6°C° 0 mm 4 mps 754 mmHg 81%

    21 February, Thursday

    Time Temperature Precipitation Wind Pressure Humidity
    00:00 +6°C° 0 mm 4 mps 755 mmHg 84%
    01:00 +6°C° 0 mm 4 mps 755 mmHg 86%
    02:00 +6°C° 0 mm 4 mps 755 mmHg 88%
    03:00 +5°C° 0 mm 4 mps 755 mmHg 90%
    04:00 +5°C° 0 mm 4 mps 755 mmHg 89%
    05:00 +5°C° 0 mm 4 mps 755 mmHg 89%
    06:00 +5°C° 0 mm 4 mps 755 mmHg 89%
    07:00 +6°C° 0 mm 4 mps 755 mmHg 85%
    08:00 +7°C° 0 mm 5 mps 756 mmHg 82%
    09:00 +8°C° 0 mm 5 mps 756 mmHg 78%
    10:00 +9°C° 0 mm 5 mps 756 mmHg 73%
    11:00 +10°C° 0 mm 5 mps 756 mmHg 69%
    12:00 +11°C° 0 mm 6 mps 756 mmHg 64%
    13:00 +12°C° 0 mm 5 mps 756 mmHg 65%
    14:00 +12°C° 0 mm 4 mps 756 mmHg 66%
    15:00 +12°C° 0 mm 4 mps 756 mmHg 67%
    16:00 +11°C° 0 mm 3 mps 756 mmHg 71%
    17:00 +10°C° 0 mm 3 mps 757 mmHg 75%
    18:00 +10°C° 0 mm 2 mps 757 mmHg 79%
    19:00 +9°C° 0 mm 2 mps 758 mmHg 81%
    20:00 +9°C° 0 mm 2 mps 758 mmHg 82%
    21:00 +9°C° 0 mm 2 mps 759 mmHg 84%
    22:00 +8°C° 0 mm 2 mps 759 mmHg 86%
    23:00 +8°C° 0 mm 2 mps 759 mmHg 87%
    Show more